Weather History for Borger, TX

Change the Weather History Date:

Tuesday, January 29, 2013

  Actual Average Record
Temperature  
Mean Temperature 43 °F 40 °F  
Max Temperature 57 °F 53 °F 74 °F (1971)
Min Temperature 29 °F 27 °F -2 °F (1966)
Degree Days  
Heating Degree Days 22 25  
Month to date heating degree days 741 766  
Since 1 July heating degree days 1984 2303  
Cooling Degree Days 0 0  
Month to date cooling degree days 0 0  
Year to date cooling degree days 0 0  
Moisture  
Dew Point 29 °F    
Average Humidity 63    
Maximum Humidity 92    
Minimum Humidity 33    
Precipitation  
Precipitation T in 0.03 in 1.67 in (1999)
Month to date precipitation 0.73 0.54  
Year to date precipitation 0.73 0.54  
Snow  
Snow T in - 8.00 in (1999)
Month to date snowfall 0.7  
Since 1 July snowfall 2.2  
Snow Depth 0.00 in    
Sea Level Pressure  
Sea Level Pressure 29.65 in    
Wind  
Wind Speed 13 mph (NNW)    
Max Wind Speed 25 mph    
Max Gust Speed 33 mph    
Visibility 7 miles    
Events Snow    
T = Trace of Precipitation, MM = Missing Value Source: NWS Daily Summary

Daily Weather History Graph

Daily Weather History Graph

Search for Another Location

Airport:

Trip Planner

Search our weather history database for the weather conditions in past years. The results will help you decide how hot, cold, wet, or windy it might be!

Date:

Astronomy

Jan. 29, 2013 Rise Set
Actual Time 7:47 AM CST 6:10 PM CST
Civil Twilight 7:20 AM CST 6:37 PM CST
Nautical Twilight 6:49 AM CST 7:08 PM CST
Astronomical Twilight 6:19 AM CST 7:38 PM CST
Moon 9:00 PM CST (1/29) 8:52 AM CST (1/29)
Length of Visible Light 11h 16m
Length of Day
10h 22m
Waning Gibbous, 93% of the Moon is Illuminated
Jan 29
Waning Gibbous
Feb 3
Last Quarter
Feb 10
New
Feb 17
First Quarter
Feb 25
Full

Hourly Weather History & Observations

Time (CST) Temp. Windchill Dew Point Humidity Pressure Visibility Wind Dir Wind Speed Gust Speed Precip Events Conditions
12:51 AM 55.9 °F - 28.0 °F 34% 29.60 in 10.0 mi WSW 10.4 mph - N/A   Partly Cloudy
1:51 AM 54.0 °F - 28.0 °F 37% 29.58 in 10.0 mi WSW 6.9 mph - N/A   Partly Cloudy
2:51 AM 55.0 °F - 28.9 °F 37% 29.62 in 10.0 mi SW 15.0 mph 21.9 mph N/A   Mostly Cloudy
3:51 AM 55.0 °F - 32.0 °F 42% 29.59 in 10.0 mi WSW 16.1 mph 20.7 mph N/A   Mostly Cloudy
4:51 AM 55.0 °F - 30.9 °F 40% 29.57 in 10.0 mi WSW 15.0 mph - 0.00 in   Mostly Cloudy
5:51 AM 51.1 °F - 30.9 °F 46% 29.57 in 10.0 mi SW 12.7 mph - N/A   Partly Cloudy
6:51 AM 51.1 °F - 30.9 °F 46% 29.57 in 10.0 mi SW 12.7 mph 23.0 mph N/A   Mostly Cloudy
7:51 AM 48.0 °F - 30.9 °F 52% 29.58 in 10.0 mi WSW 12.7 mph - N/A   Scattered Clouds
8:51 AM 45.0 °F 42.6 °F 30.0 °F 56% 29.60 in 10.0 mi WSW 4.6 mph - N/A   Partly Cloudy
9:51 AM 46.0 °F 43.1 °F 32.0 °F 58% 29.59 in 10.0 mi NNW 5.8 mph - N/A   Overcast
10:51 AM 46.0 °F 43.9 °F 32.0 °F 58% 29.57 in 10.0 mi North 4.6 mph - N/A   Overcast
11:51 AM 45.0 °F 42.6 °F 34.0 °F 65% 29.56 in 10.0 mi NNE 4.6 mph - N/A   Overcast
12:51 PM 45.0 °F 40.6 °F 32.0 °F 60% 29.54 in 10.0 mi North 8.1 mph - N/A   Mostly Cloudy
1:51 PM 46.9 °F - 33.1 °F 59% 29.51 in 10.0 mi North 13.8 mph - N/A   Partly Cloudy
2:58 PM 42.8 °F 35.1 °F 33.8 °F 70% 29.55 in 10.0 mi North 16.1 mph - N/A   Mostly Cloudy
3:51 PM 41.0 °F 33.5 °F 30.9 °F 67% 29.52 in 10.0 mi NE 13.8 mph - N/A   Overcast
4:51 PM 39.0 °F 29.0 °F 28.0 °F 65% 29.57 in 10.0 mi North 20.7 mph - N/A   Overcast
5:51 PM 37.0 °F 25.9 °F 28.0 °F 70% 29.60 in 10.0 mi North 23.0 mph 29.9 mph N/A   Overcast
6:30 PM 35.6 °F 25.2 °F 28.4 °F 75% 29.65 in 2.0 mi North 18.4 mph 25.3 mph 0.00 in Snow Light Snow
6:41 PM 33.8 °F 23.2 °F 28.4 °F 81% 29.66 in 1.2 mi North 17.3 mph 26.5 mph 0.00 in Snow Light Snow
6:51 PM 34.0 °F 25.0 °F 30.0 °F 85% 29.67 in 1.2 mi North 12.7 mph - 0.00 in Snow Light Snow
7:02 PM 33.8 °F 24.8 °F 30.2 °F 87% 29.69 in 1.2 mi NNW 12.7 mph 23.0 mph 0.00 in Snow Light Snow
7:13 PM 32.0 °F 18.9 °F 30.2 °F 93% 29.69 in 1.2 mi North 24.2 mph 28.8 mph 0.00 in Snow Light Snow
7:42 PM 30.2 °F 19.8 °F 28.4 °F 93% 29.71 in 1.2 mi North 13.8 mph 25.3 mph 0.00 in Snow Light Snow
7:51 PM 30.9 °F 18.1 °F 28.9 °F 92% 29.72 in 1.2 mi North 21.9 mph 29.9 mph 0.00 in Snow Light Snow
8:14 PM 30.2 °F 19.8 °F 28.4 °F 93% 29.73 in 1.8 mi NNW 13.8 mph 24.2 mph 0.00 in Snow Light Snow
8:18 PM 30.2 °F 19.3 °F 28.4 °F 93% 29.73 in 2.0 mi North 15.0 mph - 0.00 in Snow Light Snow
8:33 PM 30.2 °F 18.1 °F 28.4 °F 93% 29.74 in 1.5 mi North 18.4 mph 25.3 mph 0.00 in Snow Light Snow
8:48 PM 30.2 °F 19.8 °F 26.6 °F 86% 29.74 in 3.0 mi North 13.8 mph 26.5 mph 0.00 in Snow Light Snow
8:51 PM 30.0 °F 18.7 °F 27.0 °F 88% 29.76 in 4.0 mi North 16.1 mph 24.2 mph 0.00 in Snow Light Snow
9:15 PM 30.2 °F 18.9 °F 26.6 °F 86% 29.75 in 10.0 mi NNW 16.1 mph 21.9 mph 0.00 in   Overcast
9:51 PM 30.9 °F 20.2 °F 25.0 °F 79% 29.78 in 10.0 mi North 15.0 mph 24.2 mph 0.00 in   Overcast
10:51 PM 30.0 °F 21.1 °F 24.1 °F 79% 29.81 in 10.0 mi WNW 10.4 mph - N/A   Mostly Cloudy
11:51 PM 28.9 °F 19.8 °F 21.9 °F 75% 29.84 in 10.0 mi WNW 10.4 mph - N/A   Scattered Clouds